Date_Time,Julian_Date,Latitude,Longitude,Instrument_Depth,U,V,Speed,Direction
(yyyy-mm-dd hh:mn:ss UTC),(JD),(+ deg. North),(+ deg. East),(m),(cm/s),(cm/s),(cm/s),(deg True)
1984-02-13 18:30:00 UTC,2445744.270833,29.6650,-93.4789,0037,1.59,2.54,3.0000,32.0000
1984-02-13 19:00:00 UTC,2445744.291667,29.6650,-93.4789,0037,1.88,-0.68,2.0000,110.0000
1984-02-13 19:30:00 UTC,2445744.312500,29.6650,-93.4789,0037,1.04,-3.86,4.0000,165.0000
1984-02-13 20:00:00 UTC,2445744.333333,29.6650,-93.4789,0037,-1.87,-8.80,9.0000,192.0000
1984-02-13 20:30:00 UTC,2445744.354167,29.6650,-93.4789,0037,-5.69,-12.79,14.0000,204.0000
1984-02-13 21:00:00 UTC,2445744.375000,29.6650,-93.4789,0037,-8.00,-13.86,16.0000,210.0000
1984-02-13 21:30:00 UTC,2445744.395833,29.6650,-93.4789,0037,-8.71,-13.42,16.0000,213.0000
1984-02-13 22:00:00 UTC,2445744.416667,29.6650,-93.4789,0037,-9.23,-11.82,15.0000,218.0000
1984-02-13 22:30:00 UTC,2445744.437500,29.6650,-93.4789,0037,-10.07,-9.73,14.0000,226.0000
1984-02-13 23:00:00 UTC,2445744.458333,29.6650,-93.4789,0037,-10.24,-8.00,13.0000,232.0000
1984-02-13 23:30:00 UTC,2445744.479167,29.6650,-93.4789,0037,-11.61,-7.83,14.0000,236.0000
1984-02-14 00:00:00 UTC,2445744.500000,29.6650,-93.4789,0037,-11.78,-5.49,13.0000,245.0000
1984-02-14 00:30:00 UTC,2445744.520833,29.6650,-93.4789,0037,-9.78,-2.08,10.0000,258.0000
1984-02-14 01:00:00 UTC,2445744.541667,29.6650,-93.4789,0037,-8.99,0.47,9.0000,273.0000
1984-02-14 01:30:00 UTC,2445744.562500,29.6650,-93.4789,0037,-10.83,1.91,11.0000,280.0000
1984-02-14 02:00:00 UTC,2445744.583333,29.6650,-93.4789,0037,-12.61,3.14,13.0000,284.0000
1984-02-14 02:30:00 UTC,2445744.604167,29.6650,-93.4789,0037,-11.20,4.30,12.0000,291.0000
1984-02-14 03:00:00 UTC,2445744.625000,29.6650,-93.4789,0037,-9.89,4.82,11.0000,296.0000
1984-02-14 03:30:00 UTC,2445744.645833,29.6650,-93.4789,0037,-11.97,5.08,13.0000,293.0000
1984-02-14 04:00:00 UTC,2445744.666667,29.6650,-93.4789,0037,-15.76,6.37,17.0000,292.0000
1984-02-14 04:30:00 UTC,2445744.687500,29.6650,-93.4789,0037,-14.38,7.01,16.0000,296.0000
1984-02-14 05:00:00 UTC,2445744.708333,29.6650,-93.4789,0037,-10.90,7.08,13.0000,303.0000
1984-02-14 05:30:00 UTC,2445744.729167,29.6650,-93.4789,0037,-5.36,4.50,7.0000,310.0000
1984-02-14 06:00:00 UTC,2445744.750000,29.6650,-93.4789,0037,-1.26,1.55,2.0000,321.0000
1984-02-14 06:30:00 UTC,2445744.770833,29.6650,-93.4789,0037,-0.07,1.00,1.0000,356.0000
1984-02-14 07:00:00 UTC,2445744.791667,29.6650,-93.4789,0037,0.00,0.00,0.0000,15.0000
1984-02-14 07:30:00 UTC,2445744.812500,29.6650,-93.4789,0037,0.00,0.00,0.0000,17.0000
1984-02-14 08:00:00 UTC,2445744.833333,29.6650,-93.4789,0037,0.95,0.33,1.0000,71.0000
1984-02-14 08:30:00 UTC,2445744.854167,29.6650,-93.4789,0037,1.98,0.31,2.0000,81.0000
1984-02-14 09:00:00 UTC,2445744.875000,29.6650,-93.4789,0037,4.00,-0.14,4.0000,92.0000
1984-02-14 09:30:00 UTC,2445744.895833,29.6650,-93.4789,0037,4.92,-0.87,5.0000,100.0000
1984-02-14 10:00:00 UTC,2445744.916667,29.6650,-93.4789,0037,4.95,-0.70,5.0000,98.0000
1984-02-14 10:30:00 UTC,2445744.937500,29.6650,-93.4789,0037,4.98,0.44,5.0000,85.0000
1984-02-14 11:00:00 UTC,2445744.958333,29.6650,-93.4789,0037,4.76,1.55,5.0000,72.0000
1984-02-14 11:30:00 UTC,2445744.979167,29.6650,-93.4789,0037,3.60,1.75,4.0000,64.0000
1984-02-14 12:00:00 UTC,2445745.000000,29.6650,-93.4789,0037,4.37,2.42,5.0000,61.0000
1984-02-14 12:30:00 UTC,2445745.020833,29.6650,-93.4789,0037,4.91,3.44,6.0000,55.0000
1984-02-14 13:00:00 UTC,2445745.041667,29.6650,-93.4789,0037,6.47,6.25,9.0000,46.0000
1984-02-14 13:30:00 UTC,2445745.062500,29.6650,-93.4789,0037,7.22,8.30,11.0000,41.0000
1984-02-14 14:00:00 UTC,2445745.083333,29.6650,-93.4789,0037,7.22,8.30,11.0000,41.0000
1984-02-14 14:30:00 UTC,2445745.104167,29.6650,-93.4789,0037,6.69,7.43,10.0000,42.0000
1984-02-14 15:00:00 UTC,2445745.125000,29.6650,-93.4789,0037,4.77,7.63,9.0000,32.0000
1984-02-14 15:30:00 UTC,2445745.145833,29.6650,-93.4789,0037,2.74,7.52,8.0000,20.0000
1984-02-14 16:00:00 UTC,2445745.166667,29.6650,-93.4789,0037,1.14,5.89,6.0000,11.0000
1984-02-14 16:30:00 UTC,2445745.187500,29.6650,-93.4789,0037,0.09,5.00,5.0000,1.0000
1984-02-14 17:00:00 UTC,2445745.208333,29.6650,-93.4789,0037,-0.56,3.96,4.0000,352.0000
1984-02-14 17:30:00 UTC,2445745.229167,29.6650,-93.4789,0037,-0.62,2.93,3.0000,348.0000
1984-02-14 18:00:00 UTC,2445745.250000,29.6650,-93.4789,0037,-0.69,3.94,4.0000,350.0000
1984-02-14 18:30:00 UTC,2445745.270833,29.6650,-93.4789,0037,-1.37,3.76,4.0000,340.0000
1984-02-14 19:00:00 UTC,2445745.291667,29.6650,-93.4789,0037,-1.41,2.65,3.0000,332.0000
1984-02-14 19:30:00 UTC,2445745.312500,29.6650,-93.4789,0037,0.52,1.93,2.0000,15.0000
1984-02-14 20:00:00 UTC,2445745.333333,29.6650,-93.4789,0037,2.97,0.42,3.0000,82.0000
1984-02-14 20:30:00 UTC,2445745.354167,29.6650,-93.4789,0037,3.88,-0.97,4.0000,104.0000
1984-02-14 21:00:00 UTC,2445745.375000,29.6650,-93.4789,0037,3.56,-1.82,4.0000,117.0000
1984-02-14 21:30:00 UTC,2445745.395833,29.6650,-93.4789,0037,3.68,-1.56,4.0000,113.0000
1984-02-14 22:00:00 UTC,2445745.416667,29.6650,-93.4789,0037,3.99,-0.28,4.0000,94.0000
1984-02-14 22:30:00 UTC,2445745.437500,29.6650,-93.4789,0037,3.90,0.90,4.0000,77.0000
1984-02-14 23:00:00 UTC,2445745.458333,29.6650,-93.4789,0037,4.57,2.03,5.0000,66.0000
1984-02-14 23:30:00 UTC,2445745.479167,29.6650,-93.4789,0037,5.52,4.31,7.0000,52.0000
1984-02-15 00:00:00 UTC,2445745.500000,29.6650,-93.4789,0037,6.58,6.14,9.0000,47.0000
1984-02-15 00:30:00 UTC,2445745.520833,29.6650,-93.4789,0037,9.35,9.03,13.0000,46.0000
1984-02-15 01:00:00 UTC,2445745.541667,29.6650,-93.4789,0037,9.55,10.24,14.0000,43.0000
1984-02-15 01:30:00 UTC,2445745.562500,29.6650,-93.4789,0037,9.84,11.32,15.0000,41.0000
1984-02-15 02:00:00 UTC,2445745.583333,29.6650,-93.4789,0037,9.63,12.78,16.0000,37.0000
1984-02-15 02:30:00 UTC,2445745.604167,29.6650,-93.4789,0037,9.01,14.42,17.0000,32.0000
1984-02-15 03:00:00 UTC,2445745.625000,29.6650,-93.4789,0037,8.73,15.74,18.0000,29.0000
1984-02-15 03:30:00 UTC,2445745.645833,29.6650,-93.4789,0037,7.89,16.18,18.0000,26.0000
1984-02-15 04:00:00 UTC,2445745.666667,29.6650,-93.4789,0037,7.89,16.18,18.0000,26.0000
1984-02-15 04:30:00 UTC,2445745.687500,29.6650,-93.4789,0037,8.76,14.57,17.0000,31.0000
1984-02-15 05:00:00 UTC,2445745.708333,29.6650,-93.4789,0037,10.07,12.43,16.0000,39.0000
1984-02-15 05:30:00 UTC,2445745.729167,29.6650,-93.4789,0037,10.97,10.23,15.0000,47.0000
1984-02-15 06:00:00 UTC,2445745.750000,29.6650,-93.4789,0037,10.10,8.18,13.0000,51.0000
1984-02-15 06:30:00 UTC,2445745.770833,29.6650,-93.4789,0037,9.43,5.67,11.0000,59.0000
1984-02-15 07:00:00 UTC,2445745.791667,29.6650,-93.4789,0037,9.61,2.76,10.0000,74.0000
1984-02-15 07:30:00 UTC,2445745.812500,29.6650,-93.4789,0037,10.00,-0.17,10.0000,91.0000
1984-02-15 08:00:00 UTC,2445745.833333,29.6650,-93.4789,0037,9.61,-2.76,10.0000,106.0000
1984-02-15 08:30:00 UTC,2445745.854167,29.6650,-93.4789,0037,10.20,-4.12,11.0000,112.0000
1984-02-15 09:00:00 UTC,2445745.875000,29.6650,-93.4789,0037,10.20,-4.12,11.0000,112.0000
1984-02-15 09:30:00 UTC,2445745.895833,29.6650,-93.4789,0037,11.35,-3.91,12.0000,109.0000
1984-02-15 10:00:00 UTC,2445745.916667,29.6650,-93.4789,0037,13.31,-4.33,14.0000,108.0000
1984-02-15 10:30:00 UTC,2445745.937500,29.6650,-93.4789,0037,13.81,-5.86,15.0000,113.0000
1984-02-15 11:00:00 UTC,2445745.958333,29.6650,-93.4789,0037,12.86,-7.73,15.0000,121.0000
1984-02-15 11:30:00 UTC,2445745.979167,29.6650,-93.4789,0037,11.89,-10.71,16.0000,132.0000
1984-02-15 12:00:00 UTC,2445746.000000,29.6650,-93.4789,0037,9.85,-12.61,16.0000,142.0000
1984-02-15 12:30:00 UTC,2445746.020833,29.6650,-93.4789,0037,8.39,-12.44,15.0000,146.0000
1984-02-15 13:00:00 UTC,2445746.041667,29.6650,-93.4789,0037,7.42,-11.87,14.0000,148.0000
1984-02-15 13:30:00 UTC,2445746.062500,29.6650,-93.4789,0037,6.70,-11.14,13.0000,149.0000
1984-02-15 14:00:00 UTC,2445746.083333,29.6650,-93.4789,0037,6.50,-11.26,13.0000,150.0000
1984-02-15 14:30:00 UTC,2445746.104167,29.6650,-93.4789,0037,4.10,-11.28,12.0000,160.0000
1984-02-15 15:00:00 UTC,2445746.125000,29.6650,-93.4789,0037,1.15,-10.94,11.0000,174.0000
1984-02-15 15:30:00 UTC,2445746.145833,29.6650,-93.4789,0037,-0.47,-8.99,9.0000,183.0000
1984-02-15 16:00:00 UTC,2445746.166667,29.6650,-93.4789,0037,-0.14,-8.00,8.0000,181.0000
1984-02-15 16:30:00 UTC,2445746.187500,29.6650,-93.4789,0037,-0.94,-8.95,9.0000,186.0000
1984-02-15 17:00:00 UTC,2445746.208333,29.6650,-93.4789,0037,-5.03,-7.46,9.0000,214.0000
1984-02-15 17:30:00 UTC,2445746.229167,29.6650,-93.4789,0037,-10.20,-4.12,11.0000,248.0000
1984-02-15 18:00:00 UTC,2445746.250000,29.6650,-93.4789,0037,-12.97,0.91,13.0000,274.0000
1984-02-15 18:30:00 UTC,2445746.270833,29.6650,-93.4789,0037,-17.12,5.56,18.0000,288.0000
1984-02-15 19:00:00 UTC,2445746.291667,29.6650,-93.4789,0037,-22.25,8.99,24.0000,292.0000
1984-02-15 19:30:00 UTC,2445746.312500,29.6650,-93.4789,0037,-24.85,10.55,27.0000,293.0000
1984-02-15 20:00:00 UTC,2445746.333333,29.6650,-93.4789,0037,-24.67,10.98,27.0000,294.0000
1984-02-15 20:30:00 UTC,2445746.354167,29.6650,-93.4789,0037,-24.27,11.84,27.0000,296.0000
1984-02-15 21:00:00 UTC,2445746.375000,29.6650,-93.4789,0037,-23.61,13.09,27.0000,299.0000
1984-02-15 21:30:00 UTC,2445746.395833,29.6650,-93.4789,0037,-21.65,12.50,25.0000,300.0000
1984-02-15 22:00:00 UTC,2445746.416667,29.6650,-93.4789,0037,-20.31,10.80,23.0000,298.0000
1984-02-15 22:30:00 UTC,2445746.437500,29.6650,-93.4789,0037,-21.38,10.90,24.0000,297.0000
1984-02-15 23:00:00 UTC,2445746.458333,29.6650,-93.4789,0037,-22.28,11.35,25.0000,297.0000
1984-02-15 23:30:00 UTC,2445746.479167,29.6650,-93.4789,0037,-21.17,8.99,23.0000,293.0000
1984-02-16 00:00:00 UTC,2445746.500000,29.6650,-93.4789,0037,-18.51,4.27,19.0000,283.0000
1984-02-16 00:30:00 UTC,2445746.520833,29.6650,-93.4789,0037,-18.97,0.99,19.0000,273.0000
1984-02-16 01:00:00 UTC,2445746.541667,29.6650,-93.4789,0037,-22.94,1.60,23.0000,274.0000
1984-02-16 01:30:00 UTC,2445746.562500,29.6650,-93.4789,0037,-22.83,2.80,23.0000,277.0000
1984-02-16 02:00:00 UTC,2445746.583333,29.6650,-93.4789,0037,-20.61,4.01,21.0000,281.0000
1984-02-16 02:30:00 UTC,2445746.604167,29.6650,-93.4789,0037,-19.41,4.84,20.0000,284.0000
1984-02-16 03:00:00 UTC,2445746.625000,29.6650,-93.4789,0037,-18.71,3.30,19.0000,280.0000
1984-02-16 03:30:00 UTC,2445746.645833,29.6650,-93.4789,0037,-19.92,1.74,20.0000,275.0000
1984-02-16 04:00:00 UTC,2445746.666667,29.6650,-93.4789,0037,-24.81,3.05,25.0000,277.0000
1984-02-16 04:30:00 UTC,2445746.687500,29.6650,-93.4789,0037,-28.14,7.02,29.0000,284.0000
1984-02-16 05:00:00 UTC,2445746.708333,29.6650,-93.4789,0037,-30.07,10.94,32.0000,290.0000
1984-02-16 05:30:00 UTC,2445746.729167,29.6650,-93.4789,0037,-30.26,10.42,32.0000,289.0000
1984-02-16 06:00:00 UTC,2445746.750000,29.6650,-93.4789,0037,-30.21,6.97,31.0000,283.0000
1984-02-16 06:30:00 UTC,2445746.770833,29.6650,-93.4789,0037,-30.53,5.38,31.0000,280.0000
1984-02-16 07:00:00 UTC,2445746.791667,29.6650,-93.4789,0037,-30.62,4.85,31.0000,279.0000
1984-02-16 07:30:00 UTC,2445746.812500,29.6650,-93.4789,0037,-26.85,2.82,27.0000,276.0000
1984-02-16 08:00:00 UTC,2445746.833333,29.6650,-93.4789,0037,-20.99,-0.73,21.0000,268.0000
1984-02-16 08:30:00 UTC,2445746.854167,29.6650,-93.4789,0037,-18.71,-3.30,19.0000,260.0000
1984-02-16 09:00:00 UTC,2445746.875000,29.6650,-93.4789,0037,-21.67,-3.82,22.0000,260.0000
1984-02-16 09:30:00 UTC,2445746.895833,29.6650,-93.4789,0037,-24.81,-3.05,25.0000,263.0000
1984-02-16 10:00:00 UTC,2445746.916667,29.6650,-93.4789,0037,-23.91,-2.09,24.0000,265.0000
1984-02-16 10:30:00 UTC,2445746.937500,29.6650,-93.4789,0037,-19.95,-1.40,20.0000,266.0000
1984-02-16 11:00:00 UTC,2445746.958333,29.6650,-93.4789,0037,-14.92,-1.57,15.0000,264.0000
1984-02-16 11:30:00 UTC,2445746.979167,29.6650,-93.4789,0037,-14.96,-1.05,15.0000,266.0000
1984-02-16 12:00:00 UTC,2445747.000000,29.6650,-93.4789,0037,-20.00,0.35,20.0000,271.0000
1984-02-16 12:30:00 UTC,2445747.020833,29.6650,-93.4789,0037,-22.87,2.40,23.0000,276.0000
1984-02-16 13:00:00 UTC,2445747.041667,29.6650,-93.4789,0037,-21.52,4.57,22.0000,282.0000
1984-02-16 13:30:00 UTC,2445747.062500,29.6650,-93.4789,0037,-16.42,4.40,17.0000,285.0000
1984-02-16 14:00:00 UTC,2445747.083333,29.6650,-93.4789,0037,-7.73,2.07,8.0000,285.0000
1984-02-16 14:30:00 UTC,2445747.104167,29.6650,-93.4789,0037,-2.26,1.97,3.0000,311.0000
1984-02-16 15:00:00 UTC,2445747.125000,29.6650,-93.4789,0037,0.42,3.98,4.0000,6.0000
1984-02-16 15:30:00 UTC,2445747.145833,29.6650,-93.4789,0037,2.28,6.62,7.0000,19.0000
1984-02-16 16:00:00 UTC,2445747.166667,29.6650,-93.4789,0037,1.53,7.85,8.0000,11.0000
1984-02-16 16:30:00 UTC,2445747.187500,29.6650,-93.4789,0037,-1.05,9.95,10.0000,354.0000
1984-02-16 17:00:00 UTC,2445747.208333,29.6650,-93.4789,0037,-2.70,11.69,12.0000,347.0000
1984-02-16 17:30:00 UTC,2445747.229167,29.6650,-93.4789,0037,-2.90,11.64,12.0000,346.0000
1984-02-16 18:00:00 UTC,2445747.250000,29.6650,-93.4789,0037,-3.40,10.46,11.0000,342.0000
1984-02-16 18:30:00 UTC,2445747.270833,29.6650,-93.4789,0037,-5.07,10.88,12.0000,335.0000
1984-02-16 19:00:00 UTC,2445747.291667,29.6650,-93.4789,0037,-4.99,9.80,11.0000,333.0000
1984-02-16 19:30:00 UTC,2445747.312500,29.6650,-93.4789,0037,-4.77,7.63,9.0000,328.0000
1984-02-16 20:00:00 UTC,2445747.333333,29.6650,-93.4789,0037,-4.95,4.95,7.0000,315.0000
1984-02-16 20:30:00 UTC,2445747.354167,29.6650,-93.4789,0037,-5.48,2.44,6.0000,294.0000
1984-02-16 21:00:00 UTC,2445747.375000,29.6650,-93.4789,0037,-6.91,1.10,7.0000,279.0000
1984-02-16 21:30:00 UTC,2445747.395833,29.6650,-93.4789,0037,-4.94,-0.78,5.0000,261.0000
1984-02-16 22:00:00 UTC,2445747.416667,29.6650,-93.4789,0037,-3.11,-2.52,4.0000,231.0000
1984-02-16 22:30:00 UTC,2445747.437500,29.6650,-93.4789,0037,-2.42,-4.37,5.0000,209.0000
1984-02-16 23:00:00 UTC,2445747.458333,29.6650,-93.4789,0037,-4.36,-7.87,9.0000,209.0000
1984-02-16 23:30:00 UTC,2445747.479167,29.6650,-93.4789,0037,-4.85,-8.75,10.0000,209.0000
1984-02-17 00:00:00 UTC,2445747.500000,29.6650,-93.4789,0037,-4.38,-8.99,10.0000,206.0000
1984-02-17 00:30:00 UTC,2445747.520833,29.6650,-93.4789,0037,-4.23,-9.06,10.0000,205.0000
1984-02-17 01:00:00 UTC,2445747.541667,29.6650,-93.4789,0037,-4.36,-6.71,8.0000,213.0000
1984-02-17 01:30:00 UTC,2445747.562500,29.6650,-93.4789,0037,-4.77,-5.12,7.0000,223.0000
1984-02-17 02:00:00 UTC,2445747.583333,29.6650,-93.4789,0037,-5.59,-4.21,7.0000,233.0000
1984-02-17 02:30:00 UTC,2445747.604167,29.6650,-93.4789,0037,-5.44,-2.54,6.0000,245.0000
1984-02-17 03:00:00 UTC,2445747.625000,29.6650,-93.4789,0037,-6.87,-1.34,7.0000,259.0000
1984-02-17 03:30:00 UTC,2445747.645833,29.6650,-93.4789,0037,-7.00,-0.00,7.0000,270.0000
1984-02-17 04:00:00 UTC,2445747.666667,29.6650,-93.4789,0037,-6.91,1.10,7.0000,279.0000
1984-02-17 04:30:00 UTC,2445747.687500,29.6650,-93.4789,0037,-8.61,2.63,9.0000,287.0000
1984-02-17 05:00:00 UTC,2445747.708333,29.6650,-93.4789,0037,-11.20,4.30,12.0000,291.0000
1984-02-17 05:30:00 UTC,2445747.729167,29.6650,-93.4789,0037,-11.58,5.90,13.0000,297.0000
1984-02-17 06:00:00 UTC,2445747.750000,29.6650,-93.4789,0037,-11.03,8.62,14.0000,308.0000
1984-02-17 06:30:00 UTC,2445747.770833,29.6650,-93.4789,0037,-8.62,11.03,14.0000,322.0000
1984-02-17 07:00:00 UTC,2445747.791667,29.6650,-93.4789,0037,-6.36,12.47,14.0000,333.0000
1984-02-17 07:30:00 UTC,2445747.812500,29.6650,-93.4789,0037,-4.69,11.05,12.0000,337.0000
1984-02-17 08:00:00 UTC,2445747.833333,29.6650,-93.4789,0037,-3.91,9.21,10.0000,337.0000
1984-02-17 08:30:00 UTC,2445747.854167,29.6650,-93.4789,0037,-4.07,9.14,10.0000,336.0000
1984-02-17 09:00:00 UTC,2445747.875000,29.6650,-93.4789,0037,-2.74,7.52,8.0000,340.0000
1984-02-17 09:30:00 UTC,2445747.895833,29.6650,-93.4789,0037,-1.34,6.87,7.0000,349.0000
1984-02-17 10:00:00 UTC,2445747.916667,29.6650,-93.4789,0037,0.52,4.97,5.0000,6.0000
1984-02-17 10:30:00 UTC,2445747.937500,29.6650,-93.4789,0037,3.60,3.47,5.0000,46.0000
1984-02-17 11:00:00 UTC,2445747.958333,29.6650,-93.4789,0037,6.89,1.22,7.0000,80.0000
1984-02-17 11:30:00 UTC,2445747.979167,29.6650,-93.4789,0037,9.00,0.16,9.0000,89.0000
1984-02-17 12:00:00 UTC,2445748.000000,29.6650,-93.4789,0037,9.00,-0.16,9.0000,91.0000
1984-02-17 12:30:00 UTC,2445748.020833,29.6650,-93.4789,0037,8.93,-1.10,9.0000,97.0000
1984-02-17 13:00:00 UTC,2445748.041667,29.6650,-93.4789,0037,9.74,-2.25,10.0000,103.0000
1984-02-17 13:30:00 UTC,2445748.062500,29.6650,-93.4789,0037,9.61,-2.76,10.0000,106.0000
1984-02-17 14:00:00 UTC,2445748.083333,29.6650,-93.4789,0037,9.56,-2.92,10.0000,107.0000
1984-02-17 14:30:00 UTC,2445748.104167,29.6650,-93.4789,0037,9.70,-2.42,10.0000,104.0000
1984-02-17 15:00:00 UTC,2445748.125000,29.6650,-93.4789,0037,9.78,-2.08,10.0000,102.0000
1984-02-17 15:30:00 UTC,2445748.145833,29.6650,-93.4789,0037,9.78,-2.08,10.0000,102.0000
1984-02-17 16:00:00 UTC,2445748.166667,29.6650,-93.4789,0037,8.89,-1.41,9.0000,99.0000
1984-02-17 16:30:00 UTC,2445748.187500,29.6650,-93.4789,0037,7.83,-1.66,8.0000,102.0000
1984-02-17 17:00:00 UTC,2445748.208333,29.6650,-93.4789,0037,6.39,-2.85,7.0000,114.0000
1984-02-17 17:30:00 UTC,2445748.229167,29.6650,-93.4789,0037,5.44,-4.41,7.0000,129.0000
1984-02-17 18:00:00 UTC,2445748.250000,29.6650,-93.4789,0037,4.47,-6.63,8.0000,146.0000
1984-02-17 18:30:00 UTC,2445748.270833,29.6650,-93.4789,0037,1.72,-8.83,9.0000,169.0000
1984-02-17 19:00:00 UTC,2445748.291667,29.6650,-93.4789,0037,-2.10,-10.80,11.0000,191.0000
1984-02-17 19:30:00 UTC,2445748.312500,29.6650,-93.4789,0037,-4.23,-12.29,13.0000,199.0000
1984-02-17 20:00:00 UTC,2445748.333333,29.6650,-93.4789,0037,-6.10,-13.70,15.0000,204.0000
1984-02-17 20:30:00 UTC,2445748.354167,29.6650,-93.4789,0037,-9.54,-15.26,18.0000,212.0000
1984-02-17 21:00:00 UTC,2445748.375000,29.6650,-93.4789,0037,-11.74,-17.41,21.0000,214.0000
1984-02-17 21:30:00 UTC,2445748.395833,29.6650,-93.4789,0037,-12.36,-20.57,24.0000,211.0000
1984-02-17 22:00:00 UTC,2445748.416667,29.6650,-93.4789,0037,-12.21,-22.96,26.0000,208.0000
1984-02-17 22:30:00 UTC,2445748.437500,29.6650,-93.4789,0037,-13.09,-23.61,27.0000,209.0000
1984-02-17 23:00:00 UTC,2445748.458333,29.6650,-93.4789,0037,-13.98,-20.73,25.0000,214.0000
1984-02-17 23:30:00 UTC,2445748.479167,29.6650,-93.4789,0037,-14.47,-17.87,23.0000,219.0000
1984-02-18 00:00:00 UTC,2445748.500000,29.6650,-93.4789,0037,-15.28,-15.83,22.0000,224.0000
1984-02-18 00:30:00 UTC,2445748.520833,29.6650,-93.4789,0037,-15.54,-12.59,20.0000,231.0000
1984-02-18 01:00:00 UTC,2445748.541667,29.6650,-93.4789,0037,-15.10,-9.80,18.0000,237.0000
1984-02-18 01:30:00 UTC,2445748.562500,29.6650,-93.4789,0037,-16.18,-7.89,18.0000,244.0000
1984-02-18 02:00:00 UTC,2445748.583333,29.6650,-93.4789,0037,-16.56,-3.82,17.0000,257.0000
1984-02-18 02:30:00 UTC,2445748.604167,29.6650,-93.4789,0037,-15.94,1.39,16.0000,275.0000
1984-02-18 03:00:00 UTC,2445748.625000,29.6650,-93.4789,0037,-10.40,3.58,11.0000,289.0000
1984-02-18 03:30:00 UTC,2445748.645833,29.6650,-93.4789,0037,-0.45,1.95,2.0000,347.0000
1984-02-18 04:00:00 UTC,2445748.666667,29.6650,-93.4789,0037,4.53,2.11,5.0000,65.0000
1984-02-18 04:30:00 UTC,2445748.687500,29.6650,-93.4789,0037,3.83,3.21,5.0000,50.0000
1984-02-18 05:00:00 UTC,2445748.708333,29.6650,-93.4789,0037,1.81,2.40,3.0000,37.0000
1984-02-18 05:30:00 UTC,2445748.729167,29.6650,-93.4789,0037,-1.97,0.35,2.0000,280.0000
1984-02-18 06:00:00 UTC,2445748.750000,29.6650,-93.4789,0037,-5.99,-0.31,6.0000,267.0000
1984-02-18 06:30:00 UTC,2445748.770833,29.6650,-93.4789,0037,-8.77,-2.02,9.0000,257.0000
1984-02-18 07:00:00 UTC,2445748.791667,29.6650,-93.4789,0037,-9.21,-3.91,10.0000,247.0000
1984-02-18 07:30:00 UTC,2445748.812500,29.6650,-93.4789,0037,-10.52,-3.22,11.0000,253.0000
1984-02-18 08:00:00 UTC,2445748.833333,29.6650,-93.4789,0037,-14.00,0.24,14.0000,271.0000
1984-02-18 08:30:00 UTC,2445748.854167,29.6650,-93.4789,0037,-20.61,4.01,21.0000,281.0000
1984-02-18 09:00:00 UTC,2445748.875000,29.6650,-93.4789,0037,-23.29,5.81,24.0000,284.0000
1984-02-18 09:30:00 UTC,2445748.895833,29.6650,-93.4789,0037,-22.50,4.78,23.0000,282.0000
1984-02-18 10:00:00 UTC,2445748.916667,29.6650,-93.4789,0037,-20.74,3.29,21.0000,279.0000
1984-02-18 10:30:00 UTC,2445748.937500,29.6650,-93.4789,0037,-16.79,2.66,17.0000,279.0000
1984-02-18 11:00:00 UTC,2445748.958333,29.6650,-93.4789,0037,-15.65,3.33,16.0000,282.0000
1984-02-18 11:30:00 UTC,2445748.979167,29.6650,-93.4789,0037,-13.83,2.19,14.0000,279.0000
1984-02-18 12:00:00 UTC,2445749.000000,29.6650,-93.4789,0037,-9.96,-0.87,10.0000,265.0000
1984-02-18 12:30:00 UTC,2445749.020833,29.6650,-93.4789,0037,-4.24,-2.65,5.0000,238.0000
1984-02-18 13:00:00 UTC,2445749.041667,29.6650,-93.4789,0037,-0.21,-3.99,4.0000,183.0000
1984-02-18 13:30:00 UTC,2445749.062500,29.6650,-93.4789,0037,2.85,-6.39,7.0000,156.0000
1984-02-18 14:00:00 UTC,2445749.083333,29.6650,-93.4789,0037,3.95,-8.09,9.0000,154.0000
1984-02-18 14:30:00 UTC,2445749.104167,29.6650,-93.4789,0037,3.95,-8.09,9.0000,154.0000
1984-02-18 15:00:00 UTC,2445749.125000,29.6650,-93.4789,0037,4.24,-6.78,8.0000,148.0000
1984-02-18 15:30:00 UTC,2445749.145833,29.6650,-93.4789,0037,3.86,-4.60,6.0000,140.0000
1984-02-18 16:00:00 UTC,2445749.166667,29.6650,-93.4789,0037,2.97,-2.68,4.0000,132.0000
1984-02-18 16:30:00 UTC,2445749.187500,29.6650,-93.4789,0037,1.89,-0.65,2.0000,109.0000
1984-02-18 17:00:00 UTC,2445749.208333,29.6650,-93.4789,0037,2.00,0.07,2.0000,88.0000
1984-02-18 17:30:00 UTC,2445749.229167,29.6650,-93.4789,0037,0.80,0.60,1.0000,53.0000
1984-02-18 18:00:00 UTC,2445749.250000,29.6650,-93.4789,0037,-1.03,1.71,2.0000,329.0000
1984-02-18 18:30:00 UTC,2445749.270833,29.6650,-93.4789,0037,-3.69,4.73,6.0000,322.0000
1984-02-18 19:00:00 UTC,2445749.291667,29.6650,-93.4789,0037,-6.15,9.12,11.0000,326.0000
1984-02-18 19:30:00 UTC,2445749.312500,29.6650,-93.4789,0037,-7.42,11.87,14.0000,328.0000
1984-02-18 20:00:00 UTC,2445749.333333,29.6650,-93.4789,0037,-8.60,12.29,15.0000,325.0000
1984-02-18 20:30:00 UTC,2445749.354167,29.6650,-93.4789,0037,-10.07,12.43,16.0000,321.0000
1984-02-18 21:00:00 UTC,2445749.375000,29.6650,-93.4789,0037,-11.81,13.58,18.0000,319.0000
1984-02-18 21:30:00 UTC,2445749.395833,29.6650,-93.4789,0037,-12.28,13.16,18.0000,317.0000
1984-02-18 22:00:00 UTC,2445749.416667,29.6650,-93.4789,0037,-10.70,13.21,17.0000,321.0000
1984-02-18 22:30:00 UTC,2445749.437500,29.6650,-93.4789,0037,-8.76,14.57,17.0000,329.0000
1984-02-18 23:00:00 UTC,2445749.458333,29.6650,-93.4789,0037,-7.45,15.28,17.0000,334.0000
1984-02-18 23:30:00 UTC,2445749.479167,29.6650,-93.4789,0037,-7.18,15.41,17.0000,335.0000
1984-02-19 00:00:00 UTC,2445749.500000,29.6650,-93.4789,0037,-7.45,15.28,17.0000,334.0000
1984-02-19 00:30:00 UTC,2445749.520833,29.6650,-93.4789,0037,-6.10,13.70,15.0000,336.0000
1984-02-19 01:00:00 UTC,2445749.541667,29.6650,-93.4789,0037,-4.30,11.20,12.0000,339.0000
1984-02-19 01:30:00 UTC,2445749.562500,29.6650,-93.4789,0037,-3.58,9.34,10.0000,339.0000
1984-02-19 02:00:00 UTC,2445749.583333,29.6650,-93.4789,0037,-3.08,8.46,9.0000,340.0000
1984-02-19 02:30:00 UTC,2445749.604167,29.6650,-93.4789,0037,-0.94,5.93,6.0000,351.0000
1984-02-19 03:00:00 UTC,2445749.625000,29.6650,-93.4789,0037,0.35,4.99,5.0000,4.0000
1984-02-19 03:30:00 UTC,2445749.645833,29.6650,-93.4789,0037,0.17,5.00,5.0000,2.0000
1984-02-19 04:00:00 UTC,2445749.666667,29.6650,-93.4789,0037,-0.26,4.99,5.0000,357.0000
1984-02-19 04:30:00 UTC,2445749.687500,29.6650,-93.4789,0037,-0.10,6.00,6.0000,359.0000
1984-02-19 05:00:00 UTC,2445749.708333,29.6650,-93.4789,0037,0.49,6.98,7.0000,4.0000
1984-02-19 05:30:00 UTC,2445749.729167,29.6650,-93.4789,0037,1.22,6.89,7.0000,10.0000
1984-02-19 06:00:00 UTC,2445749.750000,29.6650,-93.4789,0037,1.75,5.74,6.0000,17.0000
1984-02-19 06:30:00 UTC,2445749.770833,29.6650,-93.4789,0037,1.82,3.56,4.0000,27.0000
1984-02-19 07:00:00 UTC,2445749.791667,29.6650,-93.4789,0037,1.45,2.62,3.0000,29.0000
1984-02-19 07:30:00 UTC,2445749.812500,29.6650,-93.4789,0037,0.45,0.89,1.0000,27.0000
1984-02-19 08:00:00 UTC,2445749.833333,29.6650,-93.4789,0037,0.58,1.91,2.0000,17.0000